Location: Kergonan
(48.2337°N, 4.5518°W)
Time: 21:14:52
(UTC+00:00)

CZ-4B DEB - Pass Details

Date: 18 January 2020
Orbit: 841 x 861 km, 99.1° (Epoch: 16 February)

Event Time Altitude Azimuth Distance (km) Brightness Sun altitude
Rises 05:43:13 0° 16° (NNE) 3,452 7.5 -22.6°
Reaches altitude 10° 05:45:37 10° 18° (NNE) 2,509 6.8 -22.2°
Maximum altitude 05:51:12 78° 105° (ESE) 884 4.3 -21.3°
Drops below altitude 10° 05:56:43 10° 191° (SSW) 2,481 6.6 -20.4°
Sets 05:59:05 0° 193° (SSW) 3,410 7.3 -20.0°
